Simultaneous Nadir Overpasses (SNOs) Predictions

Prediction of SNOs between METOP-B and NOAA-19 Satellite Orbit:

Table of predicted SNOs for the next 14.0 days since TLE Epoch: 1/20/2024
Index Date (METOP-B) Time (METOP-B) Lat,Lon (METOP-B) SZA (METOP-B ) Date (NOAA-19) Time (NOAA-19) Lat,Lon (NOAA-19) SZA (NOAA-19 ) Distance(km) Time Diff (sec)
1 01/30/2024 09:17:03 80.22, 63.60 98.46 01/30/2024 09:15:49 80.21, 63.50 98.43 2.17 74
2 01/30/2024 10:07:44 -80.23,-128.93 81.54 01/30/2024 10:06:52 -80.23,-129.02 81.56 1.82 52
3 01/30/2024 10:58:23 80.27, 38.79 98.51 01/30/2024 10:57:45 80.26, 38.79 98.50 0.28 38
4 01/30/2024 11:49:04 -80.28,-153.73 81.48 01/30/2024 11:48:48 -80.28,-153.73 81.48 0.22 16
5 01/30/2024 12:39:44 80.29, 13.68 98.52 01/30/2024 12:39:42 80.29, 13.77 98.54 2.02 2
6 01/30/2024 13:30:24 -80.32,-178.54 81.43 01/30/2024 13:30:44 -80.33,-178.42 81.41 2.24 20
7 01/30/2024 14:21:04 80.33, -11.12 98.58 01/30/2024 14:21:39 80.33, -11.25 98.57 2.51 35
8 01/30/2024 15:11:44 -80.37, 156.67 81.37 01/30/2024 15:12:41 -80.36, 156.56 81.37 2.33 57



Historial Predications of SNOs between METOP-B and NOAA-19
